Regional Weather Roundup
Issued by NWS

Home | Current Version | Previous Version | Graphics & Text | Print | Product List | Glossary On
Versions: 1 2 3 4 5 6 7 8 9 10 11 12 13 14 15 16 17 18 19 20 21 22 23 24 25 26 27 28 29
000
ASUS45 KGTF 031010
RWRMT
MONTANA HOURLY WEATHER ROUNDUP
NATIONAL WEATHER SERVICE GREAT FALLS MT
400 AM MDT SUN MAY 03 2015

NOTE: "FAIR" INDICATES FEW OR NO CLOUDS BELOW 12000 FEET WITH NO
SIGNIFICANT WEATHER AND/OR OBSTRUCTIONS TO VISIBILITY.

MTZ001>007-043-031100-
WEST OF THE DIVIDE

CITY           SKY/WX    TMP DP  RH WIND       PRES   REMARKS
KALISPELL      SUNNY     34  22  61 W3        29.96R
MISSOULA       CLEAR     37  23  56 CALM      29.97R
BUTTE          CLEAR     32  18  56 CALM      29.97S
DEER LODGE       N/A     37  28  70 CALM      30.01R
EUREKA           N/A     30  19  64 CALM      30.01S
LIBBY            N/A     30  25  80 CALM      30.01R
$$

MTZ008-052>055-031100-
SOUTHWEST MONTANA

CITY           SKY/WX    TMP DP  RH WIND       PRES   REMARKS
BOZEMAN        PTCLDY    41  32  70 NW7       29.94S
DILLON         CLEAR     37  20  50 E3        29.94R
$$

MTZ009-010-012-014-046-048-049-054-031100-
EAST SLOPES AND CENTRAL MONTANA

CITY           SKY/WX    TMP DP  RH WIND       PRES   REMARKS
CUT BANK       MOCLDY    37  29  72 NE3       30.00F
GREAT FALLS    PTCLDY    36  26  67 NE6       30.01R WCI  31
MALMSTROM AFB  CLEAR     41  28  60 N5        30.01S
HELENA         CLEAR     41  28  60 W7        29.99R
$$

MTZ011-013-016-021-045-047-050-051-031100-
NORTH CENTRAL MONTANA

CITY           SKY/WX    TMP DP  RH WIND       PRES   REMARKS
HAVRE          CLOUDY    39  27  62 S6        30.01R
LEWISTOWN      MOCLDY    40  31  70 CALM      30.00S
CHINOOK          N/A     43  25  49 CALM      30.01S
FORT BENTON      N/A     41  27  56 CALM      30.02S
$$

MTZ017>020-022>042-056>058-061-062-031100-
EASTERN PLAINS

CITY           SKY/WX    TMP DP  RH WIND       PRES   REMARKS
BAKER          CLOUDY    50  35  56 N7        29.94R
BILLINGS       CLOUDY    48  32  53 NE10      29.99R
GLASGOW        PTCLDY    40  31  70 N9        29.97R
JORDAN           N/A     46  34  62 CALM      29.97R
LIVINGSTON     PTCLDY    45  33  63 E15       29.97R
MILES CITY     CLOUDY    50  33  52 N12       29.94R
SIDNEY         MOCLDY    45  34  65 W9        29.94R
WOLF POINT     CLOUDY    44  32  62 NW7       29.96R
BIG TIMBER       N/A     45  34  65 NE6       30.01R
FORSYTH          N/A     52  34  50 N3        29.97S
PLENTYWOOD       N/A     36  32  87 NW8       29.93R WCI  29
POPLAR           N/A     39  34  81 CALM      29.97R
$$

REGIONAL REPORTS...DAKOTAS

CITY           SKY/WX    TMP DP  RH WIND       PRES   REMARKS
WILLISTON      MOCLDY    45  34  65 N6        29.93R
MINOT          CLOUDY    49  36  61 W15       29.86R
DICKINSON      CLOUDY    50  35  56 N8        29.89R
BEACH          FAIR      45  36  70 NW5       29.95R
CROSBY         FAIR      39  39 100 NW10      29.91R
WATFORD CITY   PTSUNNY   46  36  66 N5        29.91R
BISMARCK       CLOUDY    55  37  50 NW13      29.86R
GRAND FORKS    PTCLDY    46  40  79 NW7       29.71R
FARGO          CLEAR     52  43  71 N13       29.69R
BUFFALO SD       N/A     51  37  58 NE15      29.81R
RAPID CITY     MOCLDY    55  31  39 N17       29.81R
$$

REGIONAL REPORTS...WYOMING/IDAHO/WASHINGTON

CITY           SKY/WX    TMP DP  RH WIND       PRES   REMARKS
GILLETTE       PTCLDY    47  32  56 N10       29.90R
SHERIDAN       CLOUDY    51  37  58 NW18      29.94R
BUFFALO WY     CLOUDY    53  33  46 N15G26    29.94R
CODY           PTCLDY    46  36  66 N9G18     29.94R
YELLOWSTONE LA   N/A     30  24  78 CALM      30.02R
IDAHO FALLS    MOCLDY    54  29  38 NW9       29.90R
SALMON         CLEAR     37  27  65 CALM      29.92R
BOISE          PTCLDY    50  34  54 SW5       29.85R
SPOKANE        PTCLDY    46  26  45 N3        29.96R
$$

REGIONAL REPORTS...ALBERTA

CITY           SKY/WX    TMP DP  RH WIND       PRES   REMARKS
EDMONTON       CLEAR     34  30  86 W7        29.99R WCI  28
CALGARY        PTCLDY    30  27  86 W3        30.02F
LETHBRIDGE     CLOUDY    34  30  86 SW8       30.01F WCI  27
MEDICINE HAT   CLEAR     28  27  93 SW2       30.03R
$$

REGIONAL REPORTS...SASKATCHEWAN

CITY           SKY/WX    TMP DP  RH WIND       PRES   REMARKS
SWIFT CURRENT  CLEAR     30  25  80 W13       29.96R WCI  20
REGINA         CLEAR     34  30  86 W9        29.90R WCI  26
SASKATOON      CLEAR     36  34  93 NW12      29.91R WCI  27
$$



USA.gov is the U.S. government's official web portal to all federal, state and local government web resources and services.